QTR49Q OTHH-LGAV

Flight info

Callsign QTR49Q
Flight time N/A
Altitude 40000
Route DATRI L564 BAT/N0485F290 L564 MIGMA/N0471F280 M628 AMBAG/N0484F400 M321 KSA T503 OVANO L768 FIRAS R655 KTN R785 NIKAS M978 LCA M601 VADUS DCT EVENO UM601 RDS UL995 VARIX
Aircraft A359/H-SDE2E3GHIJ3J4J5LM1ORWXY/LB1D1

Departure

Time N/A
Airport Hamad International Airport (OTHH)

Arrival

Time 2026-05-07 14:33
Airport Athens Eleftherios Venizelos International Airport (LGAV)
Time Latitude Longitude Altitude Speed Heading
2026-05-07 14:03 36.93435 26.73937 40137 ft 430 kts 326°
2026-05-07 14:03 36.95917 26.71841 40141 ft 429 kts 320°
2026-05-07 14:04 37.00020 26.66491 40140 ft 427 kts 304°
2026-05-07 14:04 37.02561 26.59801 40140 ft 428 kts 288°
2026-05-07 14:05 37.03376 26.54763 40153 ft 433 kts 274°
2026-05-07 14:05 37.02955 26.47572 40139 ft 437 kts 268°
2026-05-07 14:06 37.02271 26.40022 40142 ft 436 kts 269°
2026-05-07 14:06 37.01908 26.32517 40138 ft 432 kts 275°
2026-05-07 14:07 37.02792 26.25157 40142 ft 427 kts 287°
2026-05-07 14:07 37.03620 26.21599 39955 ft 422 kts 289°
2026-05-07 14:07 37.04543 26.18134 39715 ft 419 kts 290°
2026-05-07 14:07 37.05509 26.14706 39489 ft 417 kts 291°
2026-05-07 14:08 37.06483 26.11296 39231 ft 414 kts 291°
2026-05-07 14:08 37.07441 26.07917 38789 ft 409 kts 291°
2026-05-07 14:08 37.08376 26.04575 38189 ft 406 kts 291°
2026-05-07 14:08 37.09295 26.01248 37616 ft 402 kts 290°
2026-05-07 14:09 37.10199 25.97945 37069 ft 399 kts 290°
2026-05-07 14:09 37.11093 25.94659 36499 ft 397 kts 290°
2026-05-07 14:09 37.11743 25.92265 36088 ft 395 kts 290°
2026-05-07 14:09 37.12614 25.89049 35543 ft 393 kts 290°
2026-05-07 14:10 37.13493 25.85801 34961 ft 395 kts 290°
2026-05-07 14:10 37.14375 25.82537 34328 ft 398 kts 289°
2026-05-07 14:10 37.15267 25.79235 33705 ft 399 kts 289°
2026-05-07 14:10 37.16155 25.75943 33262 ft 398 kts 289°
2026-05-07 14:11 37.17039 25.72661 32824 ft 396 kts 290°
2026-05-07 14:11 37.17915 25.69402 32382 ft 393 kts 290°
2026-05-07 14:11 37.18785 25.66163 31945 ft 391 kts 290°
2026-05-07 14:11 37.19649 25.62947 31497 ft 388 kts 290°
2026-05-07 14:12 37.20509 25.59740 31076 ft 387 kts 290°
2026-05-07 14:12 37.21364 25.56549 30662 ft 384 kts 290°
2026-05-07 14:12 37.22200 25.53423 30230 ft 382 kts 290°
2026-05-07 14:12 37.23054 25.50232 29742 ft 380 kts 290°
2026-05-07 14:13 37.23949 25.47173 29287 ft 378 kts 292°
2026-05-07 14:13 37.24932 25.44126 28822 ft 376 kts 293°
2026-05-07 14:13 37.25940 25.41109 28348 ft 374 kts 293°
2026-05-07 14:13 37.26950 25.38098 27865 ft 373 kts 293°
2026-05-07 14:14 37.27942 25.35090 27393 ft 372 kts 292°
2026-05-07 14:14 37.28809 25.32033 26949 ft 371 kts 288°
2026-05-07 14:14 37.29614 25.28945 26495 ft 371 kts 288°
2026-05-07 14:14 37.30419 25.25870 26031 ft 371 kts 288°
2026-05-07 14:15 37.31230 25.22801 25565 ft 370 kts 288°
2026-05-07 14:15 37.32042 25.19743 25108 ft 368 kts 288°
2026-05-07 14:15 37.32856 25.16690 24645 ft 367 kts 288°
2026-05-07 14:15 37.33666 25.13654 24188 ft 366 kts 288°
2026-05-07 14:16 37.34474 25.10624 23724 ft 365 kts 288°
2026-05-07 14:16 37.35278 25.07609 23209 ft 363 kts 288°
2026-05-07 14:16 37.36078 25.04607 22737 ft 361 kts 288°
2026-05-07 14:16 37.36874 25.01625 22280 ft 359 kts 288°
2026-05-07 14:17 37.37671 24.98666 21898 ft 355 kts 289°
2026-05-07 14:17 37.38716 24.95790 21888 ft 372 kts 298°
2026-05-07 14:17 37.40291 24.93151 21886 ft 382 kts 312°
2026-05-07 14:17 37.42298 24.91005 21675 ft 385 kts 321°
2026-05-07 14:18 37.44534 24.89144 21422 ft 386 kts 326°
2026-05-07 14:18 37.46864 24.87459 21175 ft 386 kts 328°
2026-05-07 14:18 37.49223 24.85847 20924 ft 385 kts 328°
2026-05-07 14:18 37.51579 24.84248 20656 ft 384 kts 328°
2026-05-07 14:19 37.53923 24.82632 20110 ft 384 kts 328°
2026-05-07 14:19 37.56251 24.80995 19516 ft 382 kts 327°
2026-05-07 14:19 37.58550 24.79352 18950 ft 380 kts 327°
2026-05-07 14:19 37.60836 24.77700 18365 ft 378 kts 326°
2026-05-07 14:20 37.63107 24.76048 17703 ft 376 kts 327°
2026-05-07 14:20 37.65366 24.74400 17057 ft 374 kts 327°
2026-05-07 14:20 37.67608 24.72762 16423 ft 371 kts 327°
2026-05-07 14:20 37.69731 24.70940 15802 ft 367 kts 319°
2026-05-07 14:21 37.71638 24.68831 15193 ft 363 kts 315°
2026-05-07 14:21 37.73472 24.66660 14596 ft 360 kts 315°
2026-05-07 14:21 37.75282 24.64485 14045 ft 357 kts 315°
2026-05-07 14:21 37.77063 24.62324 13466 ft 353 kts 315°
2026-05-07 14:22 37.78817 24.60186 12858 ft 349 kts 315°
2026-05-07 14:22 37.80555 24.58060 12282 ft 346 kts 315°
2026-05-07 14:22 37.82275 24.55953 11778 ft 341 kts 315°
2026-05-07 14:22 37.83965 24.53881 11320 ft 335 kts 315°
2026-05-07 14:23 37.85629 24.51836 10890 ft 332 kts 315°
2026-05-07 14:23 37.87285 24.49796 10451 ft 331 kts 315°
2026-05-07 14:23 37.88909 24.47790 10041 ft 330 kts 315°
2026-05-07 14:23 37.90543 24.45770 9576 ft 327 kts 315°
2026-05-07 14:24 37.92171 24.43764 9111 ft 326 kts 315°
2026-05-07 14:24 37.93800 24.41768 8593 ft 324 kts 314°
2026-05-07 14:24 37.95401 24.39842 8030 ft 311 kts 315°
2026-05-07 14:24 37.96981 24.37962 7503 ft 314 kts 316°
2026-05-07 14:25 37.98493 24.35979 7108 ft 309 kts 309°
2026-05-07 14:25 37.99774 24.33877 6982 ft 294 kts 305°
2026-05-07 14:25 38.00948 24.31842 6928 ft 277 kts 305°
2026-05-07 14:25 38.02068 24.29892 6643 ft 271 kts 305°
2026-05-07 14:26 38.03174 24.27967 6277 ft 269 kts 304°
2026-05-07 14:26 38.04289 24.26069 5893 ft 266 kts 304°
2026-05-07 14:26 38.05411 24.24212 5522 ft 264 kts 305°
2026-05-07 14:26 38.06534 24.22384 5160 ft 262 kts 305°
2026-05-07 14:27 38.07649 24.20567 4798 ft 260 kts 305°
2026-05-07 14:27 38.08678 24.18696 4401 ft 256 kts 294°
2026-05-07 14:27 38.09160 24.16558 4038 ft 251 kts 277°
2026-05-07 14:27 38.09426 24.14382 3664 ft 249 kts 276°
2026-05-07 14:28 38.09551 24.12212 3267 ft 244 kts 259°
2026-05-07 14:28 38.08896 24.10314 3020 ft 231 kts 233°
2026-05-07 14:28 38.07789 24.08951 2964 ft 214 kts 214°
2026-05-07 14:28 38.06600 24.07941 2966 ft 197 kts 214°
2026-05-07 14:29 38.05542 24.06935 2857 ft 185 kts 218°
2026-05-07 14:29 38.04545 24.05951 2629 ft 179 kts 216°
2026-05-07 14:29 38.03553 24.05014 2373 ft 176 kts 216°
2026-05-07 14:29 38.02599 24.04100 2131 ft 169 kts 216°
2026-05-07 14:30 38.01698 24.03235 1925 ft 156 kts 215°
2026-05-07 14:30 38.00861 24.02435 1707 ft 143 kts 215°
2026-05-07 14:30 38.00109 24.01715 1524 ft 129 kts 213°
2026-05-07 14:30 37.99397 24.01037 1364 ft 127 kts 214°
2026-05-07 14:31 37.98690 24.00361 1215 ft 128 kts 213°
2026-05-07 14:31 37.97985 23.99688 1034 ft 127 kts 215°
2026-05-07 14:31 37.97286 23.99018 842 ft 125 kts 212°
2026-05-07 14:31 37.96587 23.98359 703 ft 128 kts 217°
2026-05-07 14:32 37.96109 23.97900 595 ft 127 kts 219°
2026-05-07 14:32 37.95414 23.97238 413 ft 125 kts 217°
2026-05-07 14:32 37.94727 23.96585 310 ft 119 kts 218°
2026-05-07 14:32 37.94140 23.96014 294 ft 86 kts 217°
2026-05-07 14:33 37.93762 23.95669 285 ft 56 kts 217°
2026-05-07 14:33 37.93545 23.95447 295 ft 30 kts 229°
2026-05-07 14:33 37.93465 23.95254 300 ft 19 kts 247°
2026-05-07 14:33 37.93434 23.95160 305 ft 9 kts 247°
2026-05-07 14:34 37.93410 23.95090 307 ft 8 kts 247°
2026-05-07 14:34 37.93381 23.95028 308 ft 9 kts 227°
2026-05-07 14:34 37.93314 23.94962 308 ft 16 kts 218°
2026-05-07 14:34 37.93227 23.94880 309 ft 17 kts 217°
2026-05-07 14:35 37.93128 23.94787 310 ft 19 kts 216°
2026-05-07 14:35 37.93020 23.94684 310 ft 20 kts 216°
2026-05-07 14:35 37.92907 23.94576 312 ft 21 kts 217°
2026-05-07 14:35 37.92831 23.94497 312 ft 9 kts 237°
2026-05-07 14:36 37.92836 23.94435 310 ft 7 kts 296°
2026-05-07 14:36 37.92870 23.94375 310 ft 10 kts 307°
2026-05-07 14:36 37.92920 23.94292 311 ft 13 kts 307°
2026-05-07 14:36 37.92983 23.94188 311 ft 14 kts 307°
2026-05-07 14:37 37.93016 23.94122 311 ft 4 kts 274°
2026-05-07 14:37 37.92967 23.94065 311 ft 6 kts 218°
2026-05-07 14:37 37.92963 23.94061 311 ft 1 kts 217°
2026-05-07 14:38 37.92956 23.94055 312 ft 1 kts 217°
2026-05-07 14:38 37.92948 23.94046 311 ft 0 kts 217°